Emporia, Virginia, United States (23847)
Lat: 36.69N, Lon: 77.54W
Wx Zone: VAZ087
Local Info
Past Weather Observations for Saturday, September 27, 2014

NOTE: This archive is for the closest National Weather Service station to Emporia. Information may differ from the station used for current weather conditions.

Click here for Long-term Archive

Time Weather Temperature Dewpoint Humidity Pressure Winds Precip Visibility
23:55
Clear
54°F / 12°C 54°F / 12°C 100% 30.21 in
(1023 mb)
Calm - 7SM
23:35
Obscured
Fog
54°F / 12°C 54°F / 12°C 100% 30.21 in
(1023 mb)
Calm - M1/4SM
23:15
Obscured
Fog
54°F / 12°C 54°F / 12°C 100% 30.21 in
(1023 mb)
Calm - 1/2SM
22:55
Obscured
Fog And Mist
54°F / 12°C 54°F / 12°C 100% 30.21 in
(1023 mb)
Calm - 1 3/4SM
22:35
Clear
Fog And Mist
54°F / 12°C 54°F / 12°C 100% 30.21 in
(1023 mb)
Calm - 5SM
22:15
Clear
55°F / 13°C 55°F / 13°C 100% 30.21 in
(1023 mb)
Calm - 7SM
21:55
Obscured
Fog And Mist
55°F / 13°C 55°F / 13°C 100% 30.21 in
(1023 mb)
Calm - 3/4SM
21:35
Clear
Fog And Mist
55°F / 13°C 55°F / 13°C 100% 30.21 in
(1023 mb)
Calm - 3SM
21:15
Obscured
Fog
55°F / 13°C 55°F / 13°C 100% 30.21 in
(1023 mb)
Calm - 1/2SM
20:55
Clear
57°F / 14°C 57°F / 14°C 100% 30.21 in
(1023 mb)
Calm - 7SM
20:35
Clear
59°F / 15°C 59°F / 15°C 100% 30.21 in
(1023 mb)
Calm - 7SM
20:15
Obscured
Fog And Mist
59°F / 15°C 59°F / 15°C 100% 30.21 in
(1023 mb)
Calm - 1 1/4SM
19:55
Clear
59°F / 15°C 59°F / 15°C 100% 30.18 in
(1022 mb)
Calm - 10SM
19:35
Clear
59°F / 15°C 59°F / 15°C 100% 30.18 in
(1022 mb)
Calm - 10SM
19:15
Clear
59°F / 15°C 59°F / 15°C 100% 30.18 in
(1022 mb)
Calm - 10SM
18:55
Clear
61°F / 16°C 61°F / 16°C 100% 30.18 in
(1022 mb)
Calm - 10SM
18:35
Clear
63°F / 17°C 61°F / 16°C 94% 30.18 in
(1022 mb)
Calm - 10SM
18:15
Clear
64°F / 18°C 63°F / 17°C 94% 30.18 in
(1022 mb)
Calm - 10SM
17:55
Clear
64°F / 18°C 61°F / 16°C 88% 30.18 in
(1022 mb)
Calm - 10SM
17:35
Clear
68°F / 20°C 61°F / 16°C 78% 30.18 in
(1022 mb)
Calm - 10SM
17:15
Clear
72°F / 22°C 59°F / 15°C 65% 30.18 in
(1022 mb)
Calm - 10SM
16:55
Clear
73°F / 23°C 59°F / 15°C 61% 30.18 in
(1022 mb)
Calm - 10SM
16:35
Clear
73°F / 23°C 59°F / 15°C 61% 30.18 in
(1022 mb)
Calm - 10SM
16:15
Clear
75°F / 24°C 57°F / 14°C 54% 30.18 in
(1022 mb)
NNE 3.5 mph
(NNE 6 kph)
-
15:55
Clear
75°F / 24°C 57°F / 14°C 54% 30.18 in
(1022 mb)
NE 3.5 mph
(NE 6 kph)
- 10SM
15:35
Clear
77°F / 25°C 55°F / 13°C 47% 30.18 in
(1022 mb)
N 5.8 mph
(N 9 kph)
- 10SM
15:15
Clear
77°F / 25°C 57°F / 14°C 51% 30.21 in
(1023 mb)
N 5.8 mph
(N 9 kph)
- 10SM
14:55
Clear
77°F / 25°C 57°F / 14°C 51% 30.21 in
(1023 mb)
N 5.8 mph
(N 9 kph)
- 10SM
14:35
Clear
77°F / 25°C 57°F / 14°C 51% 30.21 in
(1023 mb)
N 8.1 mph
(N 13 kph)
- 10SM
14:15
Clear
77°F / 25°C 57°F / 14°C 51% 30.21 in
(1023 mb)
N 5.8 mph
(N 9 kph)
-
13:55
Clear
75°F / 24°C 57°F / 14°C 54% 30.21 in
(1023 mb)
NE 4.6 mph
(NE 7 kph)
- 10SM
13:35
Clear
75°F / 24°C 57°F / 14°C 54% 30.21 in
(1023 mb)
NNE 6.9 mph
(NNE 11 kph)
- 10SM
13:15
Clear
75°F / 24°C 57°F / 14°C 54% 30.21 in
(1023 mb)
N 5.8 mph
(N 9 kph)
-
12:55
Clear
73°F / 23°C 57°F / 14°C 57% 30.21 in
(1023 mb)
NE 5.8 mph
(NE 9 kph)
-
12:35
Clear
73°F / 23°C 55°F / 13°C 53% 30.24 in
(1024 mb)
NE 5.8 mph
(NE 9 kph)
- 10SM
12:15
Clear
73°F / 23°C 57°F / 14°C 57% 30.24 in
(1024 mb)
N 4.6 mph
(N 7 kph)
- 10SM
11:55
Clear
73°F / 23°C 57°F / 14°C 57% 30.24 in
(1024 mb)
NNE 5.8 mph
(NNE 9 kph)
- 10SM
11:35
Clear
73°F / 23°C 55°F / 13°C 53% 30.24 in
(1024 mb)
ENE 4.6 mph
(ENE 7 kph)
-
11:15
Clear
73°F / 23°C 57°F / 14°C 57% 30.24 in
(1024 mb)
N 4.6 mph
(N 7 kph)
- 10SM
10:55
Clear
72°F / 22°C 57°F / 14°C 61% 30.24 in
(1024 mb)
NE 5.8 mph
(NE 9 kph)
- 10SM
10:35
Clear
72°F / 22°C 59°F / 15°C 65% 30.24 in
(1024 mb)
NE 5.8 mph
(NE 9 kph)
- 10SM
10:15
Clear
70°F / 21°C 59°F / 15°C 69% 30.24 in
(1024 mb)
N 5.8 mph
(N 9 kph)
- 10SM
09:55
Clear
70°F / 21°C 59°F / 15°C 69% 30.24 in
(1024 mb)
N 5.8 mph
(N 9 kph)
- 10SM
09:35
Clear
68°F / 20°C 57°F / 14°C 69% 30.27 in
(1025 mb)
NNW 6.9 mph
(NNW 11 kph)
-
09:15
Clear
66°F / 19°C 59°F / 15°C 78% 30.24 in
(1024 mb)
NNW 4.6 mph
(NNW 7 kph)
- 10SM
08:55
Clear
64°F / 18°C 59°F / 15°C 83% 30.24 in
(1024 mb)
N 3.5 mph
(N 6 kph)
- 10SM
08:35
Clear
63°F / 17°C 59°F / 15°C 88% 30.24 in
(1024 mb)
NNW 4.6 mph
(NNW 7 kph)
- 10SM
08:15
Clear
61°F / 16°C 55°F / 13°C 83% 30.24 in
(1024 mb)
NNW 3.5 mph
(NNW 6 kph)
- 10SM
07:55
Clear
59°F / 15°C 55°F / 13°C 88% 30.24 in
(1024 mb)
NNW 4.6 mph
(NNW 7 kph)
- 10SM
07:35
Clear
57°F / 14°C 55°F / 13°C 94% 30.24 in
(1024 mb)
NNW 4.6 mph
(NNW 7 kph)
- 10SM
07:15
Clear
55°F / 13°C 54°F / 12°C 94% 30.24 in
(1024 mb)
NW 4.6 mph
(NW 7 kph)
- 10SM
06:55
Clear
54°F / 12°C 54°F / 12°C 100% 30.24 in
(1024 mb)
NW 4.6 mph
(NW 7 kph)
- 10SM
06:35
Clear
54°F / 12°C 54°F / 12°C 100% 30.24 in
(1024 mb)
NW 5.8 mph
(NW 9 kph)
- 7SM
06:15
Clear
52°F / 11°C 52°F / 11°C 100% 30.24 in
(1024 mb)
NW 3.5 mph
(NW 6 kph)
- 7SM
05:55
Fair
54°F / 12°C 52°F / 11°C 94% 30.21 in
(1023 mb)
NW 3.5 mph
(NW 6 kph)
- 10SM
05:35
Fair
54°F / 12°C 52°F / 11°C 94% N/A Calm -
05:15
Clear
54°F / 12°C 52°F / 11°C 94% 30.21 in
(1023 mb)
NW 4.6 mph
(NW 7 kph)
- 10SM
04:55
Clear
54°F / 12°C 52°F / 11°C 94% 30.21 in
(1023 mb)
NW 4.6 mph
(NW 7 kph)
- 7SM
04:35
Clear
54°F / 12°C 52°F / 11°C 94% 30.21 in
(1023 mb)
NW 4.6 mph
(NW 7 kph)
- 10SM
04:15
Clear
54°F / 12°C 52°F / 11°C 94% 30.21 in
(1023 mb)
NW 5.8 mph
(NW 9 kph)
- 7SM
03:55
Clear
54°F / 12°C 54°F / 12°C 100% 30.21 in
(1023 mb)
NW 3.5 mph
(NW 6 kph)
- 10SM
03:35
Clear
54°F / 12°C 54°F / 12°C 100% 30.21 in
(1023 mb)
NW 5.8 mph
(NW 9 kph)
- 10SM
03:15
Clear
54°F / 12°C 54°F / 12°C 100% 30.21 in
(1023 mb)
NW 4.6 mph
(NW 7 kph)
- 10SM
02:55
Clear
54°F / 12°C 54°F / 12°C 100% 30.21 in
(1023 mb)
NW 4.6 mph
(NW 7 kph)
- 10SM
02:35
Clear
54°F / 12°C 54°F / 12°C 100% 30.21 in
(1023 mb)
NNW 4.6 mph
(NNW 7 kph)
- 7SM
02:15
Clear
54°F / 12°C 54°F / 12°C 100% 30.21 in
(1023 mb)
NW 3.5 mph
(NW 6 kph)
- 10SM
01:55
Clear
54°F / 12°C 54°F / 12°C 100% 30.21 in
(1023 mb)
NW 3.5 mph
(NW 6 kph)
- 7SM
01:35
Clear
54°F / 12°C 54°F / 12°C 100% 30.21 in
(1023 mb)
Calm - 7SM
01:15
Clear
54°F / 12°C 54°F / 12°C 100% 30.21 in
(1023 mb)
Calm - 7SM
00:55
Clear
55°F / 13°C 55°F / 13°C 100% 30.21 in
(1023 mb)
Calm - 7SM
00:35
Clear
55°F / 13°C 55°F / 13°C 100% 30.21 in
(1023 mb)
NW 3.5 mph
(NW 6 kph)
- 7SM
00:15
Clear
55°F / 13°C 55°F / 13°C 100% 30.21 in
(1023 mb)
NW 3.5 mph
(NW 6 kph)
- 7SM
Time Weather Temperature Dewpoint Humidity Pressure Winds Precip Visibility


Weather for websites

WeatherForYou.com, LLC is not responsible for any damages or problems caused by this service. Current weather conditions are obtained from the closest station including government and personal stations which may have varying degrees of accuracy. Weather forecasts are derived from the NOAA NDFD. Like all things, this site belongs to Jesus Christ... He just trusts me to maintain it. If you have any questions or comments email webmaster@weatherforyou.com

Copyright © 2014, WeatherForYou.com LLC. All rights reserved.